[[{"header":{"parameterUnit":"m.s-1","parameterCategory":1,"la1":30.2991,"la2":30.254,"lo1":-89.0895,"lo2":-89.0444,"dy":0.0017,"dx":0.0017,"nx":28,"ny":28,"refTime":"2025-07-17T09:00:00:Z","depth":0,"parameterNumber":2,"parameterNumberName":"U-component_of_WINDS"},"data":[0,0,0,0,0,0,0,0,0,0,0,0,0,0,0,0,0,0,0,0,0,0,0,0,0,0,0,0,0,0,0,0,0,0,0,0,0,0,0,0,0,0,0,0,0,0,0,0,0,0,0,0,0,0,0,0,0,0,-0.0671,-0.0672,0,-0.0813,-0.0815,-0.0817,-0.0871,-0.0871,-0.087,-0.087,-0.1027,-0.1032,-0.1036,0,0,0,0,0,0,0,0,0,0,0,0,0,-0.0455,-0.0459,-0.0671,-0.0672,-0.0674,-0.0813,-0.0815,-0.0817,-0.0871,-0.0871,-0.087,-0.087,-0.1026,-0.1031,-0.1037,0,0,0,0,0,0,0,0,0,0,0,0,0,-0.0568,-0.046,-0.067,-0.0718,-0.0723,-0.0813,-0.0815,-0.0818,-0.0872,-0.0871,-0.087,-0.087,-0.1024,-0.1031,-0.1037,-0.1093,0,0,-0.1059,-0.1061,0,0,0,0,0,0,0,0,-0.0562,-0.0576,-0.0709,-0.0715,-0.0721,-0.0824,-0.0797,-0.091,-0.0872,-0.0816,-0.087,-0.0869,-0.0961,-0.0973,-0.1001,-0.1101,-0.1107,-0.1059,-0.1063,-0.1066,-0.1068,0,0,0,0,0,0,0,-0.0554,-0.0571,-0.0727,-0.0711,-0.0718,-0.0735,-0.0751,-0.0819,-0.0891,-0.082,-0.0825,-0.084,-0.0964,-0.0995,-0.1006,-0.111,-0.1059,-0.1065,-0.1069,-0.1072,-0.1263,-0.1264,0,0,0,0,0,0,-0.0537,-0.0564,-0.0723,-0.0732,-0.0638,-0.0739,-0.0757,-0.0792,-0.089,-0.0904,-0.0841,-0.0842,-0.0983,-0.0997,-0.1011,-0.1083,-0.1066,-0.1073,-0.1077,-0.1262,-0.1263,-0.1264,0,0,0,0,0,0,-0.0532,-0.055,-0.0717,-0.0649,-0.0671,-0.0744,-0.0783,-0.0795,-0.0825,-0.0905,-0.0919,-0.0858,-0.0983,-0.1002,-0.1072,-0.1089,-0.1076,-0.1082,-0.1261,-0.1263,-0.1264,-0.1227,0,0,0,0,0,0,-0.0526,-0.0548,-0.0568,-0.0649,-0.0675,-0.0772,-0.0784,-0.0798,-0.0836,-0.0839,-0.0925,-0.0939,-0.0984,-0.1061,-0.1079,-0.1099,-0.1087,-0.126,-0.1262,-0.1263,-0.1227,-0.1227,-0.1227,0,0,0,0,0,-0.0518,-0.0554,-0.0569,-0.0588,-0.07,-0.0773,-0.0788,-0.0836,-0.0837,-0.0859,-0.091,-0.0936,-0.1084,-0.1068,-0.1088,-0.111,-0.1259,-0.1261,-0.1263,-0.1227,-0.1227,-0.1227,0,0,0,0,0,0,-0.0478,-0.0566,-0.0583,-0.0646,-0.0701,-0.0782,-0.0811,-0.0835,-0.0894,-0.0895,-0.0956,-0.0975,-0.104,-0.1083,-0.1063,-0.117,-0.1174,-0.118,-0.114,-0.114,-0.114,-0.1129,-0.1093,0,0,0,0,0,-0.0476,-0.0524,-0.06,-0.0649,-0.0675,-0.0738,-0.0771,-0.0803,-0.0864,-0.0889,-0.0946,-0.1007,-0.1068,-0.1106,-0.1167,-0.1234,-0.1254,-0.1259,-0.1259,-0.1259,-0.1264,-0.1303,-0.1306,-0.1271,-0.1271,-0.1271,0,0,-0.0473,-0.0527,-0.0555,-0.0642,-0.0688,-0.074,-0.0757,-0.0811,-0.0851,-0.0899,-0.0967,-0.1011,-0.1084,-0.1152,-0.1186,-0.119,-0.1278,-0.1261,-0.126,-0.1266,-0.1305,-0.1308,-0.1311,-0.1273,-0.1272,-0.1272,0,0,-0.0495,-0.054,-0.0585,-0.063,-0.0699,-0.074,-0.0751,-0.0828,-0.0858,-0.0927,-0.0963,-0.1014,-0.1116,-0.1166,-0.1205,-0.1245,-0.1272,-0.1263,-0.1263,-0.1301,-0.1304,-0.1306,-0.1321,-0.1325,-0.1268,-0.1268,-0.1268,0,-0.0484,-0.056,-0.0606,-0.0657,-0.0695,-0.0737,-0.0785,-0.0828,-0.0914,-0.0941,-0.0943,-0.1072,-0.1125,-0.1205,-0.1214,-0.1245,-0.1261,-0.1254,-0.1299,-0.1302,-0.1305,-0.132,-0.1325,-0.1266,-0.1266,-0.1267,-0.1267,0,-0.0543,-0.0595,-0.0624,-0.0702,-0.0743,-0.0793,-0.085,-0.0887,-0.0915,-0.0957,-0.1028,-0.1091,-0.1165,-0.1187,-0.1217,-0.1272,-0.1273,-0.1286,-0.1291,-0.1306,-0.1321,-0.1327,-0.1264,-0.1265,-0.1265,-0.1265,0,0,-0.0545,-0.0645,-0.0655,-0.0691,-0.0769,-0.0813,-0.0865,-0.0933,-0.0964,-0.1022,-0.1069,-0.1154,-0.1167,-0.1211,-0.1247,-0.128,-0.1308,-0.129,-0.1293,-0.1291,-0.1374,-0.1363,-0.1368,-0.1325,-0.1327,-0.1328,-0.1368,0,-0.0576,-0.0667,-0.071,-0.0784,-0.0833,-0.0873,-0.0919,-0.0974,-0.1015,-0.1065,-0.1113,-0.1172,-0.1184,-0.121,-0.1244,-0.1297,-0.1325,-0.1295,-0.1372,-0.1375,-0.1352,-0.1376,-0.1365,-0.14,-0.1374,-0.1375,-0.1376,0,-0.0626,-0.0679,-0.0756,-0.0828,-0.0851,-0.089,-0.0956,-0.1003,-0.1067,-0.1095,-0.1143,-0.1177,-0.1237,-0.1237,-0.1322,-0.13,-0.1335,-0.1365,-0.1368,-0.1378,-0.1376,-0.1387,-0.1412,-0.1417,-0.1385,-0.1385,-0.1384,0,-0.0619,-0.0711,-0.0769,-0.0798,-0.0883,-0.091,-0.0948,-0.1011,-0.1049,-0.1108,-0.1133,-0.12,-0.1237,-0.1289,-0.1342,-0.1337,-0.1421,-0.1426,-0.1448,-0.1447,-0.1465,-0.1463,-0.1496,-0.1486,-0.1486,-0.1486,-0.1486,0,-0.065,-0.0696,-0.0766,-0.0802,-0.0855,-0.0905,-0.0958,-0.0999,-0.1054,-0.1101,-0.1141,-0.1185,-0.1252,-0.1305,-0.1347,-0.1411,-0.1428,-0.1454,-0.1465,-0.145,-0.1447,-0.1474,-0.1473,-0.1488,-0.1487,-0.1487,-0.1487,0,-0.0651,-0.07,-0.0765,-0.084,-0.086,-0.0895,-0.0961,-0.0999,-0.104,-0.1099,-0.1116,-0.1184,-0.1248,-0.1305,-0.1392,-0.1421,-0.1486,-0.15,-0.1463,-0.1469,-0.1488,-0.1485,-0.154,-0.155,-0.1533,-0.1533,-0.1533,0,-0.0668,-0.0703,-0.078,-0.0812,-0.0847,-0.0899,-0.0937,-0.0989,-0.1028,-0.1103,-0.1132,-0.1198,-0.1254,-0.1356,-0.1415,-0.1482,-0.1498,-0.1512,-0.1508,-0.1493,-0.1498,-0.1495,-0.15,-0.1512,-0.1512,-0.1512,-0.1512,0,-0.0692,-0.0714,-0.0765,-0.0824,-0.0867,-0.0918,-0.097,-0.0995,-0.1058,-0.11,-0.1163,-0.1206,-0.1293,-0.1359,-0.1432,-0.1475,-0.1505,-0.1512,-0.1521,-0.1507,-0.1484,-0.1497,-0.1462,-0.1511,-0.1511,-0.1511,-0.1511,-0.1511,-0.0702,-0.0735,-0.0793,-0.0849,-0.0893,-0.094,-0.0979,-0.1024,-0.1077,-0.1149,-0.1177,-0.1243,-0.1308,-0.1408,-0.1451,-0.1505,-0.1511,-0.1523,-0.1527,-0.1529,-0.1526,-0.1474,-0.1519,-0.1519,-0.1519,-0.1519,-0.1519,0,-0.0729,-0.0768,-0.0818,-0.0887,-0.0932,-0.0951,-0.101,-0.1047,-0.1102,-0.1158,-0.1211,-0.1285,-0.1349,-0.1413,-0.1481,-0.1513,-0.1528,-0.1529,-0.1528,-0.1537,-0.1517,-0.1503,-0.1515,-0.1515,-0.1515,-0.1515,-0.1515,-0.1515,-0.0747,-0.0804,-0.0833,-0.0913,-0.0953,-0.1014,-0.1045,-0.109,-0.1135,-0.1214,-0.1266,-0.1305,-0.1365,-0.1438,-0.1499,-0.1517,-0.154,-0.1537,-0.1559,-0.1539,-0.1539,-0.1538,-0.1525,-0.1542,-0.1542,-0.1574,-0.1574,-0.1575]},{"header":{"parameterUnit":"m.s-1","parameterCategory":1,"la1":30.2991,"la2":30.254,"lo1":-89.0895,"lo2":-89.0444,"dy":0.0017,"dx":0.0017,"nx":28,"ny":28,"refTime":"2025-07-17T09:00:00:Z","depth":0,"parameterNumber":3,"parameterNumberName":"V-component_of_WINDS"},"data":[0,0,0,0,0,0,0,0,0,0,0,0,0,0,0,0,0,0,0,0,0,0,0,0,0,0,0,0,0,0,0,0,0,0,0,0,0,0,0,0,0,0,0,0,0,0,0,0,0,0,0,0,0,0,0,0,0,0,-4.6398,-4.6399,0,-4.6488,-4.6489,-4.649,-4.6445,-4.6443,-4.6441,-4.6439,-4.6524,-4.6528,-4.6532,0,0,0,0,0,0,0,0,0,0,0,0,0,-4.6181,-4.6186,-4.6398,-4.6399,-4.64,-4.6488,-4.6489,-4.649,-4.6446,-4.6443,-4.644,-4.6438,-4.6522,-4.6528,-4.6533,0,0,0,0,0,0,0,0,0,0,0,0,0,-4.6274,-4.6187,-4.6398,-4.6389,-4.6389,-4.6488,-4.6489,-4.6491,-4.6446,-4.6443,-4.6439,-4.6436,-4.6521,-4.6527,-4.6534,-4.6644,0,0,-4.6554,-4.6557,0,0,0,0,0,0,0,0,-4.6268,-4.6282,-4.6389,-4.639,-4.639,-4.6452,-4.6444,-4.6542,-4.6447,-4.6424,-4.6439,-4.6435,-4.6502,-4.651,-4.6534,-4.6648,-4.6652,-4.6554,-4.6559,-4.6561,-4.6563,0,0,0,0,0,0,0,-4.6262,-4.6277,-4.6433,-4.6391,-4.6391,-4.6378,-4.6387,-4.6462,-4.6481,-4.6426,-4.6423,-4.6435,-4.6502,-4.6528,-4.6536,-4.6653,-4.6554,-4.656,-4.6564,-4.6567,-4.6861,-4.6864,0,0,0,0,0,0,-4.6257,-4.6272,-4.6431,-4.6436,-4.632,-4.6385,-4.6395,-4.6436,-4.6481,-4.6484,-4.6438,-4.6432,-4.6519,-4.6528,-4.6539,-4.6671,-4.6561,-4.6568,-4.6571,-4.6857,-4.6861,-4.6866,0,0,0,0,0,0,-4.6253,-4.6272,-4.6427,-4.6354,-4.6372,-4.6392,-4.6438,-4.6439,-4.6466,-4.6489,-4.6492,-4.6462,-4.6516,-4.653,-4.6619,-4.6673,-4.6571,-4.6577,-4.6852,-4.6858,-4.6864,-4.6935,0,0,0,0,0,0,-4.6246,-4.627,-4.6314,-4.6355,-4.6377,-4.6507,-4.6441,-4.6443,-4.6478,-4.6472,-4.6512,-4.6516,-4.6515,-4.6609,-4.6625,-4.668,-4.6582,-4.6847,-4.6855,-4.6862,-4.6928,-4.6943,-4.6955,0,0,0,0,0,-4.6239,-4.6329,-4.6316,-4.6336,-4.6432,-4.6511,-4.6523,-4.6521,-4.6483,-4.6526,-4.6541,-4.6514,-4.6665,-4.6618,-4.6636,-4.6694,-4.6844,-4.6853,-4.6861,-4.6922,-4.694,-4.6955,0,0,0,0,0,0,-4.6292,-4.6334,-4.6321,-4.6428,-4.6466,-4.6503,-4.6557,-4.654,-4.6589,-4.6581,-4.6575,-4.6584,-4.6677,-4.6694,-4.6642,-4.6803,-4.6748,-4.6761,-4.6788,-4.6805,-4.6819,-4.6812,-4.6587,0,0,0,0,0,-4.6316,-4.6379,-4.6412,-4.6503,-4.6523,-4.6537,-4.6571,-4.6567,-4.6606,-4.6621,-4.6643,-4.6679,-4.6735,-4.6771,-4.6823,-4.6931,-4.6938,-4.6979,-4.6993,-4.7004,-4.7015,-4.7072,-4.709,-4.6894,-4.6894,-4.6894,0,0,-4.6366,-4.6398,-4.6437,-4.6514,-4.6543,-4.6606,-4.6551,-4.6619,-4.6665,-4.6631,-4.6716,-4.6734,-4.6774,-4.6873,-4.6917,-4.689,-4.7071,-4.7015,-4.7024,-4.7028,-4.7082,-4.7101,-4.7117,-4.69,-4.6899,-4.6898,0,0,-4.649,-4.6521,-4.66,-4.6631,-4.6677,-4.6686,-4.6705,-4.6745,-4.6756,-4.6842,-4.6817,-4.6871,-4.6966,-4.6996,-4.7024,-4.7159,-4.7136,-4.7176,-4.7247,-4.7303,-4.7318,-4.7332,-4.7379,-4.7396,-4.7187,-4.7187,-4.7187,0,-4.6546,-4.6642,-4.6642,-4.6713,-4.6747,-4.6721,-4.68,-4.6829,-4.6889,-4.6912,-4.6881,-4.7001,-4.7026,-4.7131,-4.7165,-4.7188,-4.7208,-4.7171,-4.7316,-4.733,-4.7343,-4.7387,-4.7405,-4.7192,-4.7191,-4.7191,-4.719,0,-4.6708,-4.6775,-4.6832,-4.6894,-4.6934,-4.7009,-4.7018,-4.7058,-4.7051,-4.7062,-4.715,-4.718,-4.7237,-4.7262,-4.7254,-4.7366,-4.7347,-4.7317,-4.7261,-4.7366,-4.7408,-4.7425,-4.7198,-4.7196,-4.7195,-4.7194,0,0,-4.6866,-4.6927,-4.6948,-4.6976,-4.7025,-4.7075,-4.7148,-4.7207,-4.7241,-4.7283,-4.7342,-4.7425,-4.7397,-4.7428,-4.7424,-4.7473,-4.7577,-4.7436,-4.7437,-4.746,-4.77,-4.7722,-4.7742,-4.7563,-4.7566,-4.7569,-4.7696,0,-4.6992,-4.7122,-4.7124,-4.7243,-4.7303,-4.728,-4.7343,-4.7379,-4.7391,-4.7443,-4.7456,-4.7514,-4.7473,-4.7492,-4.754,-4.7554,-4.7625,-4.7545,-4.7616,-4.7618,-4.7606,-4.7764,-4.7788,-4.7907,-4.7713,-4.7716,-4.7718,0,-4.7157,-4.7207,-4.7332,-4.7373,-4.7398,-4.7455,-4.7509,-4.756,-4.7599,-4.7604,-4.764,-4.7628,-4.77,-4.7644,-4.7741,-4.7687,-4.7716,-4.7727,-4.7732,-4.7737,-4.7673,-4.7773,-4.7945,-4.7962,-4.7744,-4.7742,-4.774,0,-4.7258,-4.7357,-4.7445,-4.7469,-4.7519,-4.7559,-4.7581,-4.7617,-4.7653,-4.7699,-4.7721,-4.7774,-4.7803,-4.7844,-4.7846,-4.7805,-4.7944,-4.7887,-4.7948,-4.7949,-4.7978,-4.7976,-4.8156,-4.7999,-4.7998,-4.7998,-4.7998,0,-4.7399,-4.7476,-4.7491,-4.7545,-4.763,-4.7631,-4.7714,-4.7732,-4.7765,-4.782,-4.7802,-4.7854,-4.7854,-4.7906,-4.7908,-4.7988,-4.8001,-4.8006,-4.8005,-4.8007,-4.8006,-4.8025,-4.8016,-4.8003,-4.8002,-4.8001,-4.8,0,-4.7526,-4.754,-4.7633,-4.7674,-4.7685,-4.7746,-4.7779,-4.7829,-4.7841,-4.7911,-4.7927,-4.7944,-4.8005,-4.8011,-4.8081,-4.8082,-4.8178,-4.8169,-4.8165,-4.8163,-4.8224,-4.8218,-4.8421,-4.8447,-4.8274,-4.8276,-4.8277,0,-4.7614,-4.7673,-4.772,-4.7758,-4.7783,-4.7842,-4.7879,-4.7881,-4.7919,-4.7969,-4.8013,-4.8072,-4.8119,-4.8216,-4.8234,-4.8286,-4.8278,-4.8345,-4.8285,-4.8285,-4.8277,-4.8273,-4.8278,-4.8356,-4.8358,-4.836,-4.8361,0,-4.7768,-4.7772,-4.7827,-4.7884,-4.7929,-4.7974,-4.8015,-4.8046,-4.8053,-4.8097,-4.816,-4.8197,-4.8269,-4.8327,-4.8379,-4.8399,-4.8381,-4.838,-4.8397,-4.8399,-4.8394,-4.8396,-4.8196,-4.8375,-4.8374,-4.8373,-4.8372,-4.8371,-4.7877,-4.7929,-4.7971,-4.8032,-4.8064,-4.8104,-4.8153,-4.8172,-4.8225,-4.8286,-4.8284,-4.8352,-4.8389,-4.8458,-4.8482,-4.8534,-4.8511,-4.8536,-4.8542,-4.8547,-4.8553,-4.8387,-4.8544,-4.8543,-4.8543,-4.8543,-4.8542,0,-4.803,-4.8056,-4.8113,-4.8173,-4.8221,-4.8203,-4.8248,-4.8288,-4.835,-4.8387,-4.8435,-4.8507,-4.8563,-4.8586,-4.864,-4.8678,-4.8671,-4.8692,-4.8688,-4.8693,-4.8571,-4.8551,-4.8697,-4.8697,-4.8697,-4.8697,-4.8697,-4.8696,-4.8115,-4.8201,-4.821,-4.8311,-4.8336,-4.8405,-4.8433,-4.8468,-4.8498,-4.858,-4.8628,-4.8643,-4.8674,-4.8731,-4.8781,-4.8786,-4.8806,-4.8831,-4.8832,-4.8717,-4.8702,-4.8687,-4.8667,-4.8836,-4.8836,-4.8949,-4.895,-4.8951]}]]